When you browse on this site, cookies collect data to enhance your experience and personalize the content and advertising you see.
Visit our Privacy Policy to learn more. By continuing to use the site, you agree to this use of cookies and data.
  • In Österreich
  • Länderverzeichnis
  • Für 7 Tage
  • Wassertemperatur
  • Wetterkarte
  • News
  • Widgets
  • user-avatar
    Anmelden

    Stündliche Wetter Tlanalapan

    Heute, 28 Januar, Dienstag

    Zeit Temperatur Niederschläge Wind Luftdruck Luftfeuchtigkeit
    00:00 +11°C° 0 mm 1 m/S 565 mmHg 57%
    01:00 +11°C° 0 mm 1 m/S 564 mmHg 57%
    02:00 +10°C° 0 mm 1 m/S 564 mmHg 58%
    03:00 +10°C° 0 mm 1 m/S 564 mmHg 57%
    04:00 +9°C° 0 mm 1 m/S 563 mmHg 56%
    05:00 +8°C° 0 mm 1 m/S 563 mmHg 55%
    06:00 +10°C° 0 mm 1 m/S 564 mmHg 50%
    07:00 +11°C° 0 mm 1 m/S 565 mmHg 46%
    08:00 +12°C° 0 mm 2 m/S 566 mmHg 41%
    09:00 +14°C° 0 mm 2 m/S 567 mmHg 34%
    10:00 +16°C° 0 mm 2 m/S 567 mmHg 27%
    11:00 +18°C° 0 mm 3 m/S 568 mmHg 20%
    12:00 +19°C° 0 mm 3 m/S 568 mmHg 18%
    13:00 +19°C° 0 mm 3 m/S 567 mmHg 16%
    14:00 +20°C° 0 mm 3 m/S 567 mmHg 14%
    15:00 +19°C° 0 mm 3 m/S 567 mmHg 19%
    16:00 +18°C° 0 mm 3 m/S 566 mmHg 25%
    17:00 +17°C° 0 mm 3 m/S 566 mmHg 30%
    18:00 +15°C° 0 mm 2 m/S 566 mmHg 39%
    19:00 +14°C° 0 mm 2 m/S 565 mmHg 47%
    20:00 +12°C° 0 mm 1 m/S 565 mmHg 56%
    21:00 +11°C° 0 mm 1 m/S 565 mmHg 57%
    22:00 +11°C° 0 mm 1 m/S 565 mmHg 58%
    23:00 +10°C° 0 mm 1 m/S 565 mmHg 59%

    Morgen, 29 Januar, Mittwoch

    Zeit Temperatur Niederschläge Wind Luftdruck Luftfeuchtigkeit
    00:00 +10°C° 0 mm 1 m/S 565 mmHg 61%
    01:00 +9°C° 0 mm 1 m/S 564 mmHg 64%
    02:00 +9°C° 0 mm 1 m/S 564 mmHg 66%
    03:00 +8°C° 0 mm 1 m/S 564 mmHg 70%
    04:00 +8°C° 0 mm 1 m/S 564 mmHg 73%
    05:00 +7°C° 0 mm 1 m/S 564 mmHg 77%
    06:00 +7°C° 0 mm 2 m/S 565 mmHg 74%
    07:00 +8°C° 0 mm 2 m/S 565 mmHg 71%
    08:00 +9°C° 0 mm 2 m/S 566 mmHg 69%
    09:00 +11°C° 0 mm 3 m/S 567 mmHg 57%
    10:00 +14°C° 0 mm 3 m/S 568 mmHg 46%
    11:00 +17°C° 0 mm 4 m/S 569 mmHg 34%
    12:00 +17°C° 0 mm 5 m/S 569 mmHg 31%
    13:00 +19°C° 0 mm 5 m/S 568 mmHg 27%
    14:00 +20°C° 0 mm 6 m/S 568 mmHg 24%
    15:00 +19°C° 0 mm 6 m/S 567 mmHg 28%
    16:00 +16°C° 0 mm 5 m/S 567 mmHg 31%
    17:00 +15°C° 0 mm 5 m/S 566 mmHg 35%
    18:00 +14°C° 0 mm 4 m/S 566 mmHg 40%
    19:00 +12°C° 0 mm 3 m/S 566 mmHg 44%
    20:00 +11°C° 0 mm 3 m/S 566 mmHg 48%
    21:00 +12°C° 0 mm 2 m/S 565 mmHg 50%
    22:00 +10°C° 0 mm 2 m/S 565 mmHg 53%
    23:00 +10°C° 0 mm 2 m/S 565 mmHg 55%

    übermorgen, 30 Januar, Donnerstag

    Zeit Temperatur Niederschläge Wind Luftdruck Luftfeuchtigkeit
    00:00 +9°C° 0 mm 2 m/S 565 mmHg 56%
    01:00 +9°C° 0 mm 2 m/S 564 mmHg 57%
    02:00 +8°C° 0 mm 2 m/S 563 mmHg 58%
    03:00 +8°C° 0 mm 2 m/S 563 mmHg 59%
    04:00 +8°C° 0 mm 2 m/S 563 mmHg 59%
    05:00 +7°C° 0 mm 2 m/S 563 mmHg 60%
    06:00 +9°C° 0 mm 3 m/S 564 mmHg 56%
    07:00 +10°C° 0 mm 3 m/S 565 mmHg 52%
    08:00 +11°C° 0 mm 3 m/S 566 mmHg 48%
    09:00 +13°C° 0 mm 4 m/S 567 mmHg 41%
    10:00 +15°C° 0 mm 5 m/S 567 mmHg 33%
    11:00 +17°C° 0 mm 6 m/S 568 mmHg 25%
    12:00 +19°C° 0 mm 6 m/S 568 mmHg 24%
    13:00 +19°C° 0 mm 6 m/S 567 mmHg 23%
    14:00 +20°C° 0 mm 5 m/S 567 mmHg 23%
    15:00 +19°C° 0 mm 5 m/S 566 mmHg 25%
    16:00 +16°C° 0 mm 5 m/S 566 mmHg 28%
    17:00 +15°C° 0 mm 5 m/S 566 mmHg 30%
    18:00 +14°C° 0 mm 4 m/S 566 mmHg 33%
    19:00 +13°C° 0 mm 4 m/S 566 mmHg 36%
    20:00 +12°C° 0 mm 3 m/S 566 mmHg 38%
    21:00 +11°C° 0 mm 3 m/S 566 mmHg 41%
    22:00 +11°C° 0 mm 3 m/S 565 mmHg 45%
    23:00 +11°C° 0 mm 3 m/S 565 mmHg 48%

    31 Januar, Freitag

    Zeit Temperatur Niederschläge Wind Luftdruck Luftfeuchtigkeit
    00:00 +10°C° 0 mm 2 m/S 565 mmHg 49%
    01:00 +10°C° 0 mm 2 m/S 564 mmHg 49%
    02:00 +11°C° 0 mm 1 m/S 564 mmHg 50%
    03:00 +11°C° 0 mm 1 m/S 564 mmHg 53%
    04:00 +9°C° 0 mm 2 m/S 564 mmHg 57%
    05:00 +9°C° 0 mm 2 m/S 564 mmHg 60%
    06:00 +10°C° 0 mm 2 m/S 565 mmHg 56%
    07:00 +12°C° 0 mm 2 m/S 566 mmHg 53%
    08:00 +13°C° 0 mm 2 m/S 568 mmHg 49%
    09:00 +15°C° 0 mm 2 m/S 568 mmHg 44%
    10:00 +16°C° 0 mm 2 m/S 569 mmHg 38%
    11:00 +18°C° 0 mm 3 m/S 570 mmHg 33%
    12:00 +18°C° 0 mm 3 m/S 569 mmHg 34%
    13:00 +18°C° 0 mm 3 m/S 569 mmHg 35%
    14:00 +18°C° 0 mm 3 m/S 568 mmHg 37%
    15:00 +17°C° 0.1 mm 2 m/S 568 mmHg 43%
    16:00 +16°C° 0.1 mm 2 m/S 568 mmHg 50%
    17:00 +14°C° 0.1 mm 2 m/S 568 mmHg 56%
    18:00 +13°C° 0 mm 2 m/S 568 mmHg 63%
    19:00 +12°C° 0 mm 2 m/S 568 mmHg 71%
    20:00 +10°C° 0 mm 2 m/S 568 mmHg 78%
    21:00 +9°C° 0 mm 2 m/S 567 mmHg 81%
    22:00 +9°C° 0 mm 2 m/S 567 mmHg 84%
    23:00 +8°C° 0 mm 2 m/S 567 mmHg 87%

    1 Februar, Samstag

    Zeit Temperatur Niederschläge Wind Luftdruck Luftfeuchtigkeit
    00:00 +8°C° 0 mm 2 m/S 567 mmHg 86%
    01:00 +8°C° 0 mm 2 m/S 567 mmHg 85%
    02:00 +8°C° 0 mm 2 m/S 567 mmHg 84%
    03:00 +8°C° 0 mm 2 m/S 567 mmHg 84%
    04:00 +8°C° 0 mm 2 m/S 567 mmHg 84%
    05:00 +8°C° 0 mm 2 m/S 567 mmHg 84%
    06:00 +8°C° 0 mm 2 m/S 568 mmHg 83%
    07:00 +8°C° 0 mm 2 m/S 569 mmHg 82%
    08:00 +8°C° 0 mm 2 m/S 569 mmHg 82%
    09:00 +9°C° 0 mm 2 m/S 570 mmHg 77%
    10:00 +10°C° 0 mm 3 m/S 570 mmHg 73%
    11:00 +11°C° 0 mm 3 m/S 570 mmHg 69%
    12:00 +12°C° 0 mm 2 m/S 570 mmHg 68%
    13:00 +13°C° 0 mm 2 m/S 569 mmHg 67%
    14:00 +13°C° 0 mm 2 m/S 569 mmHg 66%
    15:00 +11°C° 0 mm 3 m/S 569 mmHg 69%
    16:00 +10°C° 0 mm 3 m/S 569 mmHg 72%
    17:00 +10°C° 0 mm 3 m/S 568 mmHg 75%
    18:00 +9°C° 0 mm 3 m/S 568 mmHg 79%
    19:00 +8°C° 0 mm 2 m/S 569 mmHg 82%
    20:00 +8°C° 0 mm 2 m/S 569 mmHg 85%
    21:00 +9°C° 0 mm 1 m/S 569 mmHg 84%
    22:00 +9°C° 0 mm 1 m/S 569 mmHg 84%
    23:00 +8°C° 0 mm 0 m/S 569 mmHg 83%

    2 Februar, Sonntag

    Zeit Temperatur Niederschläge Wind Luftdruck Luftfeuchtigkeit
    00:00 +8°C° 0 mm 0 m/S 569 mmHg 82%
    01:00 +8°C° 0 mm 0 m/S 568 mmHg 81%
    02:00 +9°C° 0 mm 0 m/S 568 mmHg 80%
    03:00 +9°C° 0 mm 0 m/S 568 mmHg 79%
    04:00 +10°C° 0 mm 1 m/S 568 mmHg 78%
    05:00 +10°C° 0 mm 1 m/S 568 mmHg 77%
    06:00 +11°C° 0 mm 1 m/S 569 mmHg 73%
    07:00 +12°C° 0 mm 1 m/S 569 mmHg 69%
    08:00 +11°C° 0 mm 0 m/S 570 mmHg 65%
    09:00 +14°C° 0 mm 1 m/S 570 mmHg 59%
    10:00 +15°C° 0 mm 1 m/S 571 mmHg 54%
    11:00 +16°C° 0 mm 1 m/S 571 mmHg 48%
    12:00 +17°C° 0 mm 2 m/S 571 mmHg 45%
    13:00 +18°C° 0 mm 3 m/S 570 mmHg 41%
    14:00 +19°C° 0 mm 5 m/S 570 mmHg 37%
    15:00 +18°C° 0 mm 4 m/S 570 mmHg 42%
    16:00 +17°C° 0 mm 4 m/S 569 mmHg 46%
    17:00 +16°C° 0 mm 3 m/S 569 mmHg 50%
    18:00 +15°C° 0 mm 2 m/S 569 mmHg 54%
    19:00 +14°C° 0 mm 2 m/S 569 mmHg 58%
    20:00 +13°C° 0 mm 1 m/S 569 mmHg 62%
    21:00 +13°C° 0 mm 1 m/S 568 mmHg 64%
    22:00 +12°C° 0 mm 1 m/S 568 mmHg 67%
    23:00 +12°C° 0 mm 1 m/S 568 mmHg 69%
    Mehr zeigen